#timestamp,LO_Frequency,Hit,StdDev 
1691146815.2,286046999.2,N
1691146835.1,286047000.7,N
1691146836.0,286047000.7,N
1691146855.8,286047000.9,N
1691146875.7,286047001.2,N
1691146895.5,286047000.5,N
1691146915.3,286046998.2,N
1691146935.2,286046999.6,N
1691146955.0,286046998.2,N
1691146955.9,286046998.2,N
1691146975.7,286047001.1,N
1691146995.6,286047001.0,N
1691147015.4,286047001.2,N
1691147035.3,286047001.0,N
1691147055.1,286047002.8,N
1691147056.0,286047002.8,N
1691147075.8,286047001.0,N
1691147095.7,286047001.2,N
1691147115.5,286047000.7,N
1691147135.3,286047000.9,N
1691147155.2,286047000.9,N
1691147175.0,286047001.2,N
1691147175.9,286047001.2,N
1691147195.8,286047001.2,N
1691147215.6,286046998.4,N
1691147235.4,286047000.8,N
1691147255.3,286047001.1,N
1691147275.1,286046999.6,N
1691147295.8,286047000.8,N
1691147315.7,286046998.3,N
1691147335.5,286046999.1,N
1691147355.4,286046998.3,N
1691147375.2,286046998.6,N
1691147395.0,286047001.2,N
1691147395.9,286047001.2,N
1691147415.8,286046998.3,N
1691147435.6,286047001.2,N
1691147455.4,286047000.4,N
1691147475.3,286047000.6,N
1691147495.1,286047001.0,N
1691147515.9,286047001.2,N
1691147535.7,286046998.4,N
1691147555.5,286046998.2,N
1691147575.4,286047000.4,N
1691147595.2,286047000.7,N
1691147615.0,286046998.8,N
1691147615.9,286046998.8,N
1691147635.8,286046998.7,N
1691147655.6,286046998.2,N
1691147675.5,286046998.7,N
1691147695.3,286047001.0,N
1691147715.1,286046998.2,N
1691147735.9,286047000.3,N
1691147755.7,286046999.0,N
1691147775.5,286046998.5,N
1691147795.4,286046998.2,N
1691147815.2,286046998.6,N
1691147835.1,286047000.5,N
1691147836.0,286047000.5,N
1691147855.8,286046998.2,N
1691147875.6,286047000.5,N
1691147895.5,286047001.0,N
1691147915.3,286046998.1,N
1691147935.2,286046998.3,N
1691147955.9,286046998.3,N
1691147975.7,286046999.3,N
1691147995.6,286046998.2,N
1691148015.4,286046998.8,N
1691148035.2,286047001.1,N
1691148055.1,286047001.2,N
1691148056.0,286047001.2,N
1691148075.8,286047000.9,N
1691148095.7,286047002.5,N
1691148115.5,286047001.4,N
1691148135.3,286047003.8,N
1691148155.2,286047003.7,N
1691148175.0,286047003.1,N
1691148175.9,286047003.1,N
1691148195.8,286047003.2,N
1691148215.6,286047003.3,N
1691148235.4,286047003.7,N
1691148255.3,286047003.8,N
1691148275.1,286047003.5,N
1691148295.8,286047003.5,N
1691148315.7,286047002.9,N
1691148335.5,286047003.0,N
1691148355.4,286047003.2,N
1691148375.2,286047003.5,N
1691148395.0,286047003.4,N
1691148395.9,286047003.4,N
1691148415.8,286047005.5,N
1691148435.6,286047005.7,N
1691148455.4,286047005.1,N
1691148475.3,286047005.2,N
1691148495.1,286047003.0,N
1691148515.9,286047005.7,Y
1691148535.7,286047002.8,P
1691148555.5,286046999.9,P
1691148575.4,286046999.9,N
1691148595.2,286046999.7,N
1691148615.1,286047000.0,N
1691148616.0,286047000.0,N
1691148635.8,286047000.3,N
1691148655.6,286047000.4,N
1691148675.5,286047001.2,N
1691148695.3,286046998.2,N
1691148715.1,286047000.5,N
1691148735.9,286046999.9,N
1691148755.7,286047000.7,N
1691148775.6,286046998.5,N
1691148795.4,286046998.8,N
1691148815.2,286046998.8,N
1691148835.1,286047000.9,N
1691148836.0,286047000.9,N
1691148855.8,286047000.8,N
1691148875.6,286046998.6,N
1691148895.5,286046999.0,N
1691148915.3,286046999.2,N
1691148935.2,286046998.7,N
1691148955.9,286046998.7,N
1691148975.7,286046998.8,N
1691148995.6,286046999.2,N
1691149015.4,286046999.1,N
1691149035.2,286046998.4,N
1691149055.1,286046998.9,N
1691149056.0,286046998.9,N
1691149075.8,286046996.8,Y
1691149095.7,286046996.6,P
1691149115.5,286046997.1,N
1691149135.3,286046994.9,P
1691149155.2,286046995.4,N
1691149175.0,286046997.6,N
1691149175.9,286046997.6,N
1691149195.8,286046995.1,Y
1691149215.6,286046998.9,P
1691149235.4,286046998.7,N
1691149255.3,286046998.7,N
1691149275.1,286046999.1,N
1691149295.8,286046999.5,N
1691149315.7,286046999.5,N
1691149335.5,286046999.2,N
1691149355.4,286046998.5,N
1691149375.2,286046998.1,N
1691149395.0,286046998.7,N
1691149395.9,286046998.7,N
1691149415.8,286046998.1,N
1691149435.6,286047000.6,N
1691149455.4,286047000.8,N
1691149475.3,286047000.5,N
1691149495.1,286047000.8,N
1691149515.9,286046998.5,N
1691149535.7,286046998.2,N
1691149555.5,286046998.2,N
1691149575.4,286046998.6,N
1691149595.2,286046998.8,N
1691149615.0,286046998.6,N
1691149615.9,286046998.6,N
1691149635.8,286046998.6,N
1691149655.6,286046998.5,N
1691149675.4,286046998.6,N
1691149695.3,286047001.2,N
1691149715.1,286047001.2,N
1691149735.9,286046998.2,N
1691149755.7,286046998.7,N
1691149775.5,286046998.4,N
1691149795.4,286046999.0,N
1691149815.2,286046999.3,N
1691149835.0,286046999.3,N
1691149836.0,286046999.3,N
1691149855.8,286046999.1,N
1691149875.6,286046996.9,Y
1691149895.5,286046998.8,P
1691149915.3,286046998.4,P
1691149935.1,286046998.3,P
1691149955.9,286046998.4,Y
1691149975.7,286047000.2,P
1691149995.6,286047000.3,N
1691150015.4,286047000.2,N
1691150035.2,286046999.9,N
1691150055.1,286047000.9,N
1691150056.0,286047000.9,N
1691150075.8,286047000.3,N
1691150095.7,286047002.8,Y
1691150115.5,286046999.9,P
1691150135.3,286047002.5,P
1691150155.2,286047002.5,N
1691150175.9,286047002.5,N
1691150195.7,286047002.4,N
1691150215.6,286047002.1,N
1691150235.4,286047002.1,N
1691150255.3,286047002.0,N
1691150275.1,286047002.6,N
1691150276.0,286047002.6,N
1691150295.8,286047002.2,N
1691150315.7,286047002.3,N
1691150335.5,286047002.0,N
1691150355.3,286047001.7,N
1691150375.2,286047001.4,N
1691150395.0,286047001.5,N
1691150395.9,286047001.5,N
